CAPE
0 nan 1 114 114 156 110 68 134 134 172 160 117 117 78 66 119 119 56 42 42 118 144 161 161 91 nan nan 1 1 5 2 nan nan nan nan nan nan nan nan nan nan nan nan nan nan nan nan nan nan nan nan nan nan nan nan nan nan nan nan nan nan nan nan nan nan 1 4 5 5 5 3 1 1 1 0 nan nan nan nan nan nan nan nan nan nan
5 0 nan 3 3 122 113 103 107 107 175 138 94 94 78 72 77 77 66 30 30 59 127 157 157 124 50 nan nan nan nan nan nan nan nan nan nan nan nan nan nan nan nan nan nan nan nan nan nan nan nan nan nan nan nan nan nan nan nan nan nan nan nan nan nan nan 0 2 2 2 2 0 nan nan nan nan nan nan nan nan nan nan nan nan nan nan
29 1 nan nan nan 20 125 219 105 105 186 131 77 77 70 76 68 68 61 33 33 19 26 42 42 65 48 nan nan nan nan nan nan nan nan nan nan nan nan nan nan nan nan nan nan nan nan nan nan nan nan nan nan nan nan nan nan nan nan nan nan nan nan nan nan nan nan nan 1 1 1 0 nan nan nan nan nan nan nan nan nan nan nan nan nan nan
54 17 nan nan nan 3 71 216 99 99 152 125 95 95 73 84 78 78 67 41 41 13 10 17 17 18 18 2 nan nan nan nan nan nan nan nan nan nan nan nan nan nan nan nan nan nan nan nan nan nan nan nan nan nan nan nan nan nan nan nan nan nan nan nan nan nan nan nan nan nan nan nan nan nan nan nan nan nan nan nan nan nan nan nan nan nan
61 41 4 nan nan 2 56 198 154 154 130 139 97 97 98 91 89 89 79 48 48 22 12 14 14 10 7 3 0 0 nan 0 1 1 0 0 nan nan nan nan nan nan nan nan nan nan nan nan nan nan nan nan nan nan nan nan nan nan nan nan nan nan nan nan nan nan nan nan nan nan nan nan nan nan nan nan nan nan nan nan nan nan nan nan nan nan
61 49 26 nan nan 0 108 192 154 154 147 166 114 114 92 104 100 100 85 48 48 24 8 9 9 7 5 1 nan nan 0 1 1 1 1 1 1 1 0 nan nan nan nan nan nan nan nan nan nan nan nan nan nan nan nan nan nan nan nan nan nan nan nan nan nan nan nan nan nan nan nan nan nan nan nan nan nan nan nan nan nan nan nan nan nan nan
56 52 30 1 1 nan 168 205 140 140 80 145 164 164 101 126 120 120 89 45 45 19 11 10 10 4 1 nan nan nan 2 1 0 0 0 0 1 1 2 1 1 0 nan nan nan nan nan nan nan nan nan nan nan nan nan nan nan nan nan nan nan nan nan nan nan nan nan nan nan nan nan nan nan nan nan nan nan nan nan nan nan nan nan nan nan nan
58 58 34 5 5 nan 85 158 126 126 39 29 84 84 127 156 182 182 160 53 53 40 28 4 4 12 22 25 25 25 31 35 22 22 12 7 2 2 0 1 1 1 1 1 1 nan nan nan nan nan nan nan nan nan nan nan nan nan nan nan nan nan nan nan nan nan nan nan nan nan nan nan nan nan nan nan nan nan nan nan nan nan nan 0 0 1
79 63 48 12 12 nan 25 105 137 137 43 8 39 39 95 88 74 74 68 34 34 32 25 16 16 15 23 31 30 30 26 31 32 32 23 10 3 3 3 0 0 0 0 1 1 0 nan nan nan nan nan nan nan nan 0 0 0 nan nan nan nan nan nan nan nan nan nan nan nan nan nan nan nan nan nan nan nan nan nan nan nan nan 0 1 1 2
111 72 48 23 23 nan 2 63 121 121 70 8 14 14 82 127 76 76 29 8 8 11 34 40 40 17 17 26 30 30 32 35 26 26 20 3 2 2 0 nan nan nan nan nan nan nan nan nan nan nan nan 0 3 3 3 2 2 nan nan nan nan nan nan nan nan nan nan nan nan nan nan nan nan nan nan nan nan nan nan nan nan nan 0 0 0 0
181 104 65 27 27 7 13 94 123 123 83 13 3 3 10 71 95 95 44 11 11 3 15 5 5 3 7 12 30 30 34 48 39 39 18 8 2 2 nan nan nan nan 0 nan nan nan nan 1 1 4 7 8 6 6 4 1 1 nan nan nan nan nan nan nan nan nan nan nan nan nan nan nan nan nan nan nan nan nan nan nan nan nan nan nan nan nan
203 152 98 39 39 13 47 153 157 157 81 13 8 8 nan 2 33 33 60 29 29 4 0 1 1 0 1 3 10 10 27 40 44 44 25 12 4 4 nan 0 0 3 2 0 0 nan nan nan nan 1 3 3 2 2 1 0 0 nan nan nan nan nan 1 1 1 1 1 1 nan nan nan nan nan nan nan nan nan nan nan nan nan nan nan nan nan nan
187 192 128 58 58 11 55 149 129 129 86 23 5 5 1 nan nan nan 10 41 41 6 nan nan nan 0 0 0 2 2 13 32 34 34 32 16 6 6 1 1 1 1 1 2 2 0 nan nan nan 0 nan nan nan nan nan nan nan nan nan nan nan 0 2 5 5 7 8 8 4 4 1 nan nan nan nan nan nan nan nan nan nan nan nan nan nan nan
148 154 84 51 51 15 40 124 100 100 84 40 31 31 18 nan nan nan nan 0 0 1 0 0 0 0 nan nan nan nan 1 8 18 18 24 27 22 22 11 7 7 2 1 3 3 3 nan nan nan nan nan nan nan nan nan nan nan nan nan 0 0 1 1 4 4 8 13 13 11 11 7 1 nan nan nan nan nan nan nan nan nan nan nan nan nan nan
122 105 32 26 26 21 61 92 76 76 75 41 50 50 31 1 nan nan nan 0 0 nan nan 0 0 nan nan nan nan nan nan nan 3 3 9 14 7 7 8 13 13 19 8 9 9 12 4 2 2 1 nan nan nan nan nan nan nan nan nan nan nan nan 0 1 1 3 9 10 9 9 8 3 0 0 nan nan nan nan nan nan nan nan nan nan nan nan
80 70 32 38 38 47 86 68 67 67 71 51 40 40 28 7 0 0 nan nan nan nan nan 0 0 nan nan nan nan nan nan nan nan nan 2 14 4 4 3 6 6 7 3 3 3 7 9 10 10 10 6 nan nan nan nan nan nan nan nan nan nan nan 1 8 8 16 22 24 19 19 14 10 3 3 0 nan nan nan nan nan nan nan nan nan nan nan
5 7 33 37 37 35 86 114 77 77 83 49 30 30 27 12 1 1 nan nan nan nan 1 2 2 1 nan nan nan nan nan 0 nan nan nan nan 0 0 0 1 1 3 2 3 3 2 1 1 1 2 2 nan nan nan nan nan nan nan nan nan nan nan 1 5 5 10 15 14 8 8 4 0 nan nan nan nan nan nan nan nan nan nan nan nan nan nan
3 3 5 7 7 1 0 1 0 0 31 53 23 23 21 10 0 0 0 nan nan nan 0 2 2 2 1 0 nan nan nan 3 4 4 nan nan nan nan nan nan nan 0 0 0 0 0 0 1 1 nan nan nan nan nan nan nan nan nan nan nan nan nan nan nan nan nan nan nan nan nan nan nan nan nan nan nan nan nan nan nan nan nan nan nan nan nan
2 2 2 3 3 5 3 2 1 1 0 nan 1 1 8 nan nan nan nan nan nan 1 nan nan nan 1 1 0 nan nan nan 1 1 1 0 0 nan nan 0 nan nan nan nan nan nan nan nan nan nan nan nan nan nan nan nan nan nan nan nan nan nan nan nan nan nan nan nan nan nan nan nan nan nan nan nan nan nan nan nan nan nan nan nan nan nan nan
3 3 2 4 4 6 3 3 2 2 1 1 nan nan 0 nan nan nan nan nan nan 6 nan nan nan nan 0 nan nan nan nan nan nan nan nan nan nan nan 3 nan nan 0 nan nan nan nan nan nan nan nan nan nan nan nan nan nan nan nan nan nan nan nan nan nan nan nan nan nan nan nan nan nan nan nan nan nan nan nan nan nan nan nan nan nan nan nan
5 3 2 4 4 5 3 3 3 3 3 1 0 0 nan 0 nan nan nan nan nan nan nan nan nan nan 0 nan nan nan nan nan nan nan nan nan nan nan nan 1 1 nan 0 nan nan nan nan nan nan nan nan nan nan nan nan nan nan nan nan nan nan nan nan nan nan nan nan nan nan nan nan nan nan nan nan nan nan nan nan nan nan nan nan nan nan nan
4 2 1 2 2 4 8 5 4 4 3 1 0 0 0 0 1 1 1 12 12 8 nan nan nan nan nan nan nan nan nan nan nan nan nan nan nan nan nan 2 2 nan nan 2 2 4 nan nan nan nan nan nan nan nan nan nan nan nan nan nan nan nan nan nan nan nan nan nan nan nan nan nan nan nan nan nan nan nan nan nan nan nan nan nan nan nan
2 1 0 1 1 3 8 6 4 4 2 1 1 1 1 1 nan nan 9 11 11 nan nan nan nan nan nan nan nan nan nan nan nan nan nan nan nan nan nan nan nan nan nan 1 1 6 nan nan nan nan nan nan nan nan nan nan nan nan nan nan nan nan nan nan nan nan nan nan nan nan nan nan nan nan nan nan nan nan nan nan nan nan nan nan nan nan
2 0 nan 0 0 1 6 5 3 3 2 1 2 2 1 1 1 1 nan nan nan nan nan nan nan nan nan nan nan nan nan nan nan nan nan nan nan nan nan nan nan nan nan nan nan 1 1 1 1 1 0 0 1 1 nan 0 0 nan nan nan nan nan nan nan nan nan nan nan nan nan nan nan nan nan nan nan nan nan nan nan nan nan nan nan nan nan
5 1 1 1 1 6 5 3 6 6 3 2 1 1 0 0 0 0 nan nan nan nan nan nan nan nan nan nan nan nan nan nan nan nan nan nan nan nan nan nan nan nan nan nan nan nan nan 0 0 3 4 2 3 3 2 1 1 nan nan nan nan nan nan nan nan nan nan nan nan nan nan nan nan nan nan nan nan nan nan nan nan nan nan nan nan nan
18 13 10 14 14 28 28 25 19 19 10 2 1 1 0 nan nan nan nan nan nan nan nan nan nan nan nan nan nan nan nan nan nan nan nan nan nan nan nan nan nan nan nan nan nan nan nan nan nan nan 0 3 1 1 0 nan nan nan nan nan nan nan nan nan nan nan nan nan nan nan nan nan nan nan nan nan nan nan nan nan nan nan nan nan nan nan
38 38 42 41 41 37 32 26 22 22 22 12 3 3 nan nan 0 0 nan nan nan nan nan nan nan nan nan nan nan nan nan nan nan nan nan nan nan nan nan nan nan nan nan nan nan nan nan nan nan nan nan nan nan nan nan nan nan nan nan nan nan nan nan nan nan nan nan nan nan nan nan nan nan nan nan nan nan nan nan nan nan nan nan nan nan nan
37 37 34 32 32 28 26 24 22 22 22 18 12 12 1 0 1 1 2 1 1 nan nan nan nan nan nan nan nan nan nan nan nan nan nan nan nan nan nan nan nan nan nan nan nan nan nan nan nan nan nan nan nan nan nan nan nan nan nan nan nan nan nan nan nan nan nan nan nan nan nan nan nan nan nan nan nan nan nan nan nan nan nan nan nan nan
27 29 31 29 29 23 20 20 23 23 24 19 13 13 3 nan 0 0 1 3 3 nan nan nan nan nan nan nan nan nan nan nan nan nan nan nan nan nan nan nan nan nan nan nan nan nan nan nan nan nan nan nan nan nan nan nan nan nan nan nan nan nan nan nan nan nan nan nan nan nan nan nan nan nan nan nan nan nan nan nan nan nan nan nan nan nan
6 13 16 22 22 18 10 4 18 18 25 20 14 14 7 0 0 0 0 1 1 nan nan nan nan nan nan nan nan nan nan nan nan nan nan nan nan nan nan nan nan nan nan nan nan nan nan nan nan nan nan nan nan nan nan nan nan nan 0 1 1 nan nan nan nan nan nan nan nan nan nan nan nan nan nan nan nan nan nan nan nan nan nan nan nan nan
nan nan nan 2 2 3 0 nan 3 3 17 19 13 13 7 1 0 0 0 1 1 1 4 nan nan nan nan nan nan nan nan nan 0 0 nan nan nan nan nan nan nan nan nan nan nan nan nan nan nan nan nan nan nan nan nan nan nan nan nan nan nan nan 0 nan nan nan nan nan nan nan nan nan nan nan nan nan nan nan nan nan nan nan nan nan nan nan
nan nan nan nan nan nan nan nan nan nan nan nan 0 0 5 3 1 1 nan nan nan nan 0 nan nan nan nan nan nan nan 0 0 1 1 0 nan nan nan nan nan nan nan nan nan nan nan nan nan nan nan nan nan nan nan nan nan nan nan nan nan nan nan nan nan nan nan nan nan nan nan nan nan nan nan nan nan nan nan nan nan nan nan nan nan nan nan
0 nan nan nan nan nan nan nan nan nan nan nan nan nan nan 0 4 4 1 nan nan nan nan 0 0 nan nan nan 0 0 0 1 2 2 0 nan nan nan nan nan nan nan nan nan nan nan nan nan nan nan nan nan nan nan nan nan nan nan nan nan nan nan nan nan nan nan nan nan nan nan nan nan nan nan nan nan nan nan nan nan nan nan nan nan nan nan
nan nan nan nan nan nan nan nan nan nan nan nan 1 1 nan nan nan nan 0 nan nan nan nan nan nan 0 nan nan nan nan nan 0 3 3 1 nan nan nan nan nan nan nan nan nan nan nan nan nan nan nan nan nan nan nan nan nan nan nan nan nan nan nan nan nan nan nan nan nan nan nan nan nan nan nan nan nan nan nan nan nan nan nan nan nan nan nan
nan nan nan nan nan nan nan nan nan nan nan nan 0 0 0 nan nan nan nan nan nan nan nan nan nan nan nan nan nan nan nan nan 2 2 2 nan nan nan nan nan nan nan nan nan nan nan nan nan nan nan nan nan nan nan nan nan nan nan nan nan nan nan nan nan nan nan nan nan nan nan nan nan nan nan nan nan nan nan nan nan nan nan nan nan nan nan
nan nan nan nan nan nan nan nan nan nan nan nan nan nan nan nan nan nan nan nan nan 0 1 nan nan nan nan nan nan nan nan nan 1 1 2 nan nan nan nan nan nan nan nan nan nan nan nan nan nan nan nan nan nan nan nan nan nan 1 1 nan nan nan nan nan nan nan nan nan nan nan nan nan nan nan nan nan nan nan nan nan nan nan nan nan nan nan
nan nan nan nan nan nan nan nan nan nan nan nan nan nan nan nan nan nan nan nan nan nan nan 2 2 1 3 nan nan nan nan nan nan nan 1 nan nan nan nan nan nan nan nan nan nan nan nan nan nan nan nan nan nan nan nan nan nan nan 1 1 1 0 nan nan nan nan nan nan nan nan nan nan nan nan nan nan nan nan nan nan nan nan nan nan nan nan
nan nan nan nan nan nan nan nan nan nan nan nan nan nan nan nan nan nan nan nan nan nan nan nan nan nan 6 5 0 0 nan nan nan nan nan nan nan nan nan nan nan nan nan nan nan nan nan nan nan nan nan nan nan nan nan nan nan nan 0 0 0 0 nan nan nan nan nan nan nan nan nan nan nan nan nan nan nan nan nan nan nan nan nan nan nan nan
nan nan nan nan nan nan nan nan nan nan nan nan nan nan nan nan nan nan nan nan nan nan nan nan nan nan nan 1 3 3 1 nan nan nan nan nan nan nan nan nan nan nan nan nan nan nan nan nan nan nan nan nan nan nan nan nan nan nan nan nan nan nan nan nan nan nan nan nan nan nan nan nan nan nan nan nan nan nan nan nan nan nan nan nan nan nan
nan nan nan nan nan nan nan nan nan nan nan nan nan nan nan nan nan nan nan nan nan nan nan nan nan nan nan 1 1 1 1 nan nan nan nan nan nan nan nan nan nan nan nan nan nan nan nan nan nan nan nan nan nan nan nan nan nan nan nan nan nan nan nan nan nan nan nan nan nan nan nan nan nan nan nan nan nan nan nan nan nan nan nan nan nan nan
nan nan nan nan nan nan nan nan nan nan nan nan nan nan nan nan nan nan nan nan nan nan nan nan nan nan nan nan nan nan nan nan nan nan nan nan nan nan nan nan nan nan nan nan nan nan nan nan nan nan nan nan nan nan nan nan nan 1 nan nan nan nan nan nan nan nan nan nan nan nan nan nan nan nan nan nan nan nan nan nan nan nan nan nan nan nan
nan nan nan nan nan nan nan nan nan nan nan nan nan nan nan nan nan nan nan nan nan nan nan nan nan nan nan nan nan nan nan nan nan nan nan nan nan nan nan nan nan nan nan nan nan nan nan nan nan nan nan nan nan nan nan nan nan 0 nan nan nan nan nan nan nan nan nan nan nan nan nan nan nan nan nan nan nan nan nan nan nan nan nan nan nan nan
nan nan nan nan nan nan nan nan nan nan nan nan nan nan nan nan nan nan nan nan nan nan nan nan nan nan nan nan nan nan nan nan nan nan nan nan nan nan nan nan nan nan nan nan nan nan nan nan nan nan nan nan nan nan nan nan nan nan nan nan nan nan nan nan nan nan nan nan nan nan nan nan nan nan nan nan nan nan nan nan nan nan nan nan nan nan
nan nan nan nan nan nan nan nan nan nan nan nan nan nan nan nan nan nan nan nan nan nan nan nan nan nan nan nan nan nan nan nan nan nan nan 0 nan nan nan nan nan nan nan nan nan nan nan nan nan nan nan nan nan nan nan nan nan nan nan nan nan nan nan nan nan nan nan nan nan nan nan nan nan nan nan nan nan nan nan nan nan nan nan nan nan nan
nan nan nan nan nan nan nan nan nan nan nan nan nan nan nan nan nan nan nan nan nan nan nan nan nan nan nan nan nan nan nan nan nan nan nan 0 2 2 nan nan nan nan nan nan nan nan nan nan nan nan nan nan nan nan nan nan nan nan nan nan nan nan nan nan nan nan nan nan nan nan nan nan nan nan nan nan nan nan nan nan nan nan nan nan nan nan
nan nan nan nan nan nan nan nan nan nan nan nan nan nan nan nan nan nan nan nan nan nan nan nan nan nan nan nan nan nan nan nan nan nan nan nan nan nan nan nan nan nan nan nan nan nan nan nan nan nan nan nan nan nan nan nan nan nan nan nan nan nan nan nan nan nan nan nan nan nan nan nan nan nan nan nan nan nan nan nan nan nan nan nan nan nan
nan nan nan nan nan nan nan nan nan nan nan nan nan nan nan nan nan nan nan nan nan nan nan nan nan nan nan nan nan nan nan nan nan nan nan nan nan nan nan nan nan nan nan nan nan nan nan nan nan nan nan nan nan nan nan nan nan nan nan nan nan nan nan nan nan nan nan nan nan nan nan nan nan nan nan nan nan nan nan nan nan nan nan nan nan nan
nan nan nan nan nan nan nan nan nan nan nan nan nan nan nan nan nan nan nan nan nan nan nan nan nan nan nan nan nan nan nan nan nan nan nan nan nan nan nan nan nan nan nan nan nan nan nan nan nan nan nan nan nan nan nan nan nan nan nan nan nan nan nan nan nan nan nan nan nan nan nan nan nan nan nan nan nan nan nan nan nan nan nan nan nan nan
nan nan nan nan nan nan nan nan nan nan nan nan nan nan nan nan nan nan nan nan nan nan nan nan nan nan nan nan nan nan nan nan nan nan nan nan nan nan nan nan nan nan nan nan nan nan nan nan nan nan nan nan nan nan nan nan nan nan nan nan nan nan nan nan nan nan nan nan nan nan nan nan nan nan nan nan nan nan nan nan nan nan nan nan nan nan
nan nan nan nan nan nan nan nan nan nan nan nan nan nan nan nan nan nan nan nan nan nan nan nan nan nan nan nan nan nan nan nan nan nan nan nan nan nan nan nan nan nan nan nan nan nan nan nan nan nan nan nan nan nan nan nan nan nan nan nan nan nan nan nan nan nan nan nan nan nan nan nan nan nan nan nan nan nan nan nan nan nan nan nan nan nan
nan nan nan nan nan nan nan nan nan nan nan nan nan nan nan nan nan nan nan nan nan nan nan nan nan nan nan nan nan nan nan nan nan nan nan nan nan nan nan nan nan nan nan nan nan nan nan nan nan nan nan 6 nan nan nan nan nan nan nan nan nan nan nan nan nan nan nan nan nan nan nan nan nan nan nan nan nan nan nan nan nan nan nan nan nan nan
CIN
-34 nan -93 -33 -33 -7 -3 -9 -10 -10 -26 -21 -5 -5 -2 -8 -1 -1 -12 -10 -10 -0 -0 -1 -1 -47 nan nan -191 -191 -168 -179 nan nan nan nan nan nan nan nan nan nan nan nan nan nan nan nan nan nan nan nan nan nan nan nan nan nan nan nan nan nan nan nan nan nan -18 -22 -25 -25 -21 -12 -0 -0 -10 -21 nan nan nan nan nan nan nan nan nan nan
-26 -65 nan -66 -66 -18 -4 -0 -6 -6 -21 -13 -4 -4 -1 -1 -1 -1 -17 -22 -22 -0 -0 -0 -0 -0 -0 nan nan nan nan nan nan nan nan nan nan nan nan nan nan nan nan nan nan nan nan nan nan nan nan nan nan nan nan nan nan nan nan nan nan nan nan nan nan nan -34 -36 -39 -39 -34 -29 nan nan nan nan nan nan nan nan nan nan nan nan nan nan
-20 -26 nan nan nan -40 -11 -0 -6 -6 -14 -8 -2 -2 -0 -0 -1 -1 -1 -28 -28 -23 -1 -7 -7 -0 -0 nan nan nan nan nan nan nan nan nan nan nan nan nan nan nan nan nan nan nan nan nan nan nan nan nan nan nan nan nan nan nan nan nan nan nan nan nan nan nan nan nan -54 -54 -48 -47 nan nan nan nan nan nan nan nan nan nan nan nan nan nan
-15 -12 nan nan nan -66 -28 -7 -3 -3 -9 -9 -0 -0 -0 -1 -1 -1 -1 -35 -35 -36 -23 -1 -1 -4 -0 -33 nan nan nan nan nan nan nan nan nan nan nan nan nan nan nan nan nan nan nan nan nan nan nan nan nan nan nan nan nan nan nan nan nan nan nan nan nan nan nan nan nan nan nan nan nan nan nan nan nan nan nan nan nan nan nan nan nan nan
-14 -8 -8 nan nan -73 -41 -17 -1 -1 -7 -12 -1 -1 -0 -1 -2 -2 -1 -43 -43 -27 -1 -1 -1 -7 -17 -22 -49 -49 nan -0 -0 -0 -0 -0 nan nan nan nan nan nan nan nan nan nan nan nan nan nan nan nan nan nan nan nan nan nan nan nan nan nan nan nan nan nan nan nan nan nan nan nan nan nan nan nan nan nan nan nan nan nan nan nan nan nan
-9 -10 -9 nan nan -66 -41 -20 -8 -8 -0 -4 -2 -2 -0 -0 -3 -3 -1 -41 -41 -0 -10 -10 -10 -9 -25 -33 nan nan -0 -0 -0 -0 -0 -0 -0 -0 -0 nan nan nan nan nan nan nan nan nan nan nan nan nan nan nan nan nan nan nan nan nan nan nan nan nan nan nan nan nan nan nan nan nan nan nan nan nan nan nan nan nan nan nan nan nan nan nan
-11 -16 -17 -23 -23 nan -27 -12 -5 -5 -0 -2 -6 -6 -0 -0 -1 -1 -1 -24 -24 -0 -12 -14 -14 -19 -36 nan nan nan -1 -0 -0 -0 -0 -0 -0 -0 -0 -0 -0 -0 nan nan nan nan nan nan nan nan nan nan nan nan nan nan nan nan nan nan nan nan nan nan nan nan nan nan nan nan nan nan nan nan nan nan nan nan nan nan nan nan nan nan nan nan
-7 -13 -13 -16 -16 nan -39 -27 -10 -10 -1 -0 -0 -0 -5 -8 -4 -4 -1 -3 -3 -1 -1 -2 -2 -2 -2 -3 -4 -4 -3 -1 -1 -1 -1 -0 -0 -0 -0 -0 -0 -0 -0 -0 -0 nan nan nan nan nan nan nan nan nan nan nan nan nan nan nan nan nan nan nan nan nan nan nan nan nan nan nan nan nan nan nan nan nan nan nan nan nan nan -0 -0 -0
-4 -6 -8 -15 -15 nan -42 -39 -26 -26 -9 -0 -0 -0 -1 -4 -5 -5 -6 -3 -3 -3 -3 -2 -2 -2 -2 -3 -4 -4 -6 -6 -3 -3 -1 -0 -0 -0 -0 -0 -0 -0 -0 -0 -0 -0 nan nan nan nan nan nan nan nan -54 -71 -71 nan nan nan nan nan nan nan nan nan nan nan nan nan nan nan nan nan nan nan nan nan nan nan nan nan -7 -4 -4 -0
-3 -0 -5 -16 -16 nan -59 -49 -42 -42 -31 -1 -0 -0 -1 -2 -6 -6 -15 -14 -14 -8 -4 -2 -2 -2 -3 -2 -3 -3 -6 -10 -16 -16 -16 -16 -4 -4 -3 nan nan nan nan nan nan nan nan nan nan nan nan -19 -32 -32 -49 -63 -63 nan nan nan nan nan nan nan nan nan nan nan nan nan nan nan nan nan nan nan nan nan nan nan nan nan -16 -11 -11 -6
-1 -3 -9 -20 -20 -38 -38 -37 -44 -44 -39 -4 -1 -1 -1 -2 -4 -4 -10 -20 -20 -23 -4 -3 -3 -4 -4 -3 -1 -1 -3 -3 -7 -7 -18 -37 -43 -43 nan nan nan nan -0 nan nan nan nan -9 -9 -10 -12 -16 -26 -26 -38 -53 -53 nan nan nan nan nan nan nan nan nan nan nan nan nan nan nan nan nan nan nan nan nan nan nan nan nan nan nan nan nan
-1 -5 -10 -19 -19 -32 -32 -22 -23 -23 -29 -4 -0 -0 nan -19 -9 -9 -3 -16 -16 -18 -6 -8 -8 -9 -6 -6 -7 -7 -3 -1 -1 -1 -5 -21 -38 -38 nan -10 -10 -4 -0 -0 -0 nan nan nan nan -14 -13 -14 -20 -20 -27 -38 -38 nan nan nan nan nan -74 -78 -78 -83 -85 -79 nan nan nan nan nan nan nan nan nan nan nan nan nan nan nan nan nan nan
-1 -3 -10 -16 -16 -29 -24 -13 -4 -4 -1 -10 -2 -2 -3 nan nan nan -13 -2 -2 -21 nan nan nan -18 -23 -14 -6 -6 -5 -2 -1 -1 -1 -7 -13 -13 -23 -7 -7 -9 -5 -1 -1 -1 nan nan nan -27 nan nan nan nan nan nan nan nan nan nan nan -57 -63 -69 -69 -76 -77 -71 -68 -68 -69 nan nan nan nan nan nan nan nan nan nan nan nan nan nan nan
-1 -3 -5 -5 -5 -17 -20 -10 -3 -3 -1 -26 -4 -4 -3 nan nan nan nan -17 -17 -23 -14 -17 -17 -22 nan nan nan nan -8 -8 -8 -8 -1 -1 -2 -2 -4 -3 -3 -7 -10 -7 -7 -3 nan nan nan nan nan nan nan nan nan nan nan nan nan -32 -32 -34 -39 -50 -50 -63 -68 -61 -62 -62 -64 -77 nan nan nan nan nan nan nan nan nan nan nan nan nan nan
-1 -2 -1 -1 -1 -7 -13 -13 -5 -5 -26 -50 -37 -37 -13 -13 nan nan nan -11 -11 nan nan -10 -10 nan nan nan nan nan nan nan -14 -14 -19 -15 -19 -19 -10 -3 -3 -3 -6 -7 -7 -7 -9 -7 -7 -4 nan nan nan nan nan nan nan nan nan nan nan nan -15 -15 -15 -21 -24 -35 -34 -34 -47 -56 -74 -74 nan nan nan nan nan nan nan nan nan nan nan nan
-0 -1 -0 -1 -1 -3 -11 -15 -6 -6 -32 -55 -52 -52 -27 -18 -3 -3 nan nan nan nan nan -4 -4 nan nan nan nan nan nan nan nan nan -16 -5 -41 -41 -30 -16 -16 -3 -12 -4 -4 -5 -6 -6 -6 -6 -6 nan nan nan nan nan nan nan nan nan nan nan -3 -2 -2 -2 -4 -6 -10 -10 -16 -30 -50 -50 -72 nan nan nan nan nan nan nan nan nan nan nan
-0 -0 -0 -0 -0 -2 -5 -5 -9 -9 -19 -51 -52 -52 -36 -20 -15 -15 nan nan nan nan -5 -5 -5 -4 nan nan nan nan nan -15 nan nan nan nan -51 -51 -41 -40 -40 -29 -27 -23 -23 -20 -17 -6 -6 -6 -9 nan nan nan nan nan nan nan nan nan nan nan -7 -7 -7 -6 -6 -7 -12 -12 -23 -38 nan nan nan nan nan nan nan nan nan nan nan nan nan nan
-0 -0 -0 -0 -0 -0 -0 -0 -77 -77 -15 -19 -43 -43 -41 -18 -18 -18 -10 nan nan nan -9 -11 -11 -10 -8 -19 nan nan nan -23 -19 -19 nan nan nan nan nan nan nan -45 -35 -36 -36 -38 -36 -23 -23 nan nan nan nan nan nan nan nan nan nan nan nan nan nan nan nan nan nan nan nan nan nan nan nan nan nan nan nan nan nan nan nan nan nan nan nan nan
-0 -0 -0 -0 -0 -0 -0 -0 -0 -0 -0 nan -41 -41 -46 nan nan nan nan nan nan -8 nan nan nan -15 -13 -19 nan nan nan -41 -24 -24 -23 -27 nan nan -36 nan nan nan nan nan nan nan nan nan nan nan nan nan nan nan nan nan nan nan nan nan nan nan nan nan nan nan nan nan nan nan nan nan nan nan nan nan nan nan nan nan nan nan nan nan nan nan
-0 -0 -0 -0 -0 -0 -0 -0 -0 -0 -0 -0 nan nan -38 nan nan nan nan nan nan -10 nan nan nan nan -17 nan nan nan nan nan nan nan nan nan nan nan -42 nan nan -30 nan nan nan nan nan nan nan nan nan nan nan nan nan nan nan nan nan nan nan nan nan nan nan nan nan nan nan nan nan nan nan nan nan nan nan nan nan nan nan nan nan nan nan nan
-0 -0 -0 -0 -0 -0 -0 -0 -0 -0 -0 -0 -0 -0 nan -3 nan nan nan nan nan nan nan nan nan nan -18 nan nan nan nan nan nan nan nan nan nan nan nan -27 -27 nan -24 nan nan nan nan nan nan nan nan nan nan nan nan nan nan nan nan nan nan nan nan nan nan nan nan nan nan nan nan nan nan nan nan nan nan nan nan nan nan nan nan nan nan nan
-0 -0 -0 -0 -0 -0 -0 -0 -0 -0 -0 -0 -0 -0 -0 -10 -9 -9 -7 -2 -2 -14 nan nan nan nan nan nan nan nan nan nan nan nan nan nan nan nan nan -45 -45 nan nan -35 -35 -12 nan nan nan nan nan nan nan nan nan nan nan nan nan nan nan nan nan nan nan nan nan nan nan nan nan nan nan nan nan nan nan nan nan nan nan nan nan nan nan nan
-0 -0 -0 -0 -0 -0 -0 -0 -0 -0 -0 -0 -0 -0 -0 -0 nan nan -8 -8 -8 nan nan nan nan nan nan nan nan nan nan nan nan nan nan nan nan nan nan nan nan nan nan -34 -34 -11 nan nan nan nan nan nan nan nan nan nan nan nan nan nan nan nan nan nan nan nan nan nan nan nan nan nan nan nan nan nan nan nan nan nan nan nan nan nan nan nan
-1 -1 nan -0 -0 -0 -0 -0 -0 -0 -0 -0 -0 -0 -0 -0 -0 -0 nan nan nan nan nan nan nan nan nan nan nan nan nan nan nan nan nan nan nan nan nan nan nan nan nan nan nan -18 -10 -7 -7 -8 -7 -6 -6 -6 nan -3 -3 nan nan nan nan nan nan nan nan nan nan nan nan nan nan nan nan nan nan nan nan nan nan nan nan nan nan nan nan nan
-1 -1 -0 -0 -0 -0 -0 -0 -0 -0 -0 -0 -0 -0 -0 -0 -0 -0 nan nan nan nan nan nan nan nan nan nan nan nan nan nan nan nan nan nan nan nan nan nan nan nan nan nan nan nan nan -13 -13 -10 -9 -9 -9 -9 -4 -3 -3 nan nan nan nan nan nan nan nan nan nan nan nan nan nan nan nan nan nan nan nan nan nan nan nan nan nan nan nan nan
-0 -0 -0 -0 -0 -0 -0 -0 -0 -0 -0 -0 -0 -0 -0 nan nan nan nan nan nan nan nan nan nan nan nan nan nan nan nan nan nan nan nan nan nan nan nan nan nan nan nan nan nan nan nan nan nan nan -18 -11 -6 -6 -6 nan nan nan nan nan nan nan nan nan nan nan nan nan nan nan nan nan nan nan nan nan nan nan nan nan nan nan nan nan nan nan
-0 -0 -0 -0 -0 -0 -0 -0 -0 -0 -0 -0 -0 -0 nan nan -1 -1 nan nan nan nan nan nan nan nan nan nan nan nan nan nan nan nan nan nan nan nan nan nan nan nan nan nan nan nan nan nan nan nan nan nan nan nan nan nan nan nan nan nan nan nan nan nan nan nan nan nan nan nan nan nan nan nan nan nan nan nan nan nan nan nan nan nan nan nan
-0 -0 -0 -0 -0 -0 -0 -0 -0 -0 -0 -0 -0 -0 -0 -0 -0 -0 -0 -0 -0 nan nan nan nan nan nan nan nan nan nan nan nan nan nan nan nan nan nan nan nan nan nan nan nan nan nan nan nan nan nan nan nan nan nan nan nan nan nan nan nan nan nan nan nan nan nan nan nan nan nan nan nan nan nan nan nan nan nan nan nan nan nan nan nan nan
-0 -0 -0 -0 -0 -0 -0 -0 -0 -0 -0 -0 -0 -0 -0 nan -0 -0 -0 -0 -0 nan nan nan nan nan nan nan nan nan nan nan nan nan nan nan nan nan nan nan nan nan nan nan nan nan nan nan nan nan nan nan nan nan nan nan nan nan nan nan nan nan nan nan nan nan nan nan nan nan nan nan nan nan nan nan nan nan nan nan nan nan nan nan nan nan
-0 -0 -0 -0 -0 -0 -0 -0 -0 -0 -0 -0 -0 -0 -0 -0 -0 -0 -0 -0 -0 nan nan nan nan nan nan nan nan nan nan nan nan nan nan nan nan nan nan nan nan nan nan nan nan nan nan nan nan nan nan nan nan nan nan nan nan nan -1 -0 -0 nan nan nan nan nan nan nan nan nan nan nan nan nan nan nan nan nan nan nan nan nan nan nan nan nan
nan nan nan -0 -0 -0 -0 nan -0 -0 -0 -0 -0 -0 -0 -0 -0 -0 -0 -0 -0 -0 -1 nan nan nan nan nan nan nan nan nan -0 -0 nan nan nan nan nan nan nan nan nan nan nan nan nan nan nan nan nan nan nan nan nan nan nan nan nan nan nan nan -0 nan nan nan nan nan nan nan nan nan nan nan nan nan nan nan nan nan nan nan nan nan nan nan
nan nan nan nan nan nan nan nan nan nan nan nan -0 -0 -0 -0 -0 -0 nan nan nan nan -0 nan nan nan nan nan nan nan -0 -0 -0 -0 -0 nan nan nan nan nan nan nan nan nan nan nan nan nan nan nan nan nan nan nan nan nan nan nan nan nan nan nan nan nan nan nan nan nan nan nan nan nan nan nan nan nan nan nan nan nan nan nan nan nan nan nan
-0 nan nan nan nan nan nan nan nan nan nan nan nan nan nan -0 -0 -0 -0 nan nan nan nan -0 -0 nan nan nan -0 -0 -0 -0 -0 -0 -0 nan nan nan nan nan nan nan nan nan nan nan nan nan nan nan nan nan nan nan nan nan nan nan nan nan nan nan nan nan nan nan nan nan nan nan nan nan nan nan nan nan nan nan nan nan nan nan nan nan nan nan
nan nan nan nan nan nan nan nan nan nan nan nan -0 -0 nan nan nan nan -0 nan nan nan nan nan nan -0 nan nan nan nan nan -0 -0 -0 -0 nan nan nan nan nan nan nan nan nan nan nan nan nan nan nan nan nan nan nan nan nan nan nan nan nan nan nan nan nan nan nan nan nan nan nan nan nan nan nan nan nan nan nan nan nan nan nan nan nan nan nan
nan nan nan nan nan nan nan nan nan nan nan nan -1 -1 -0 nan nan nan nan nan nan nan nan nan nan nan nan nan nan nan nan nan -0 -0 -0 nan nan nan nan nan nan nan nan nan nan nan nan nan nan nan nan nan nan nan nan nan nan nan nan nan nan nan nan nan nan nan nan nan nan nan nan nan nan nan nan nan nan nan nan nan nan nan nan nan nan nan
nan nan nan nan nan nan nan nan nan nan nan nan nan nan nan nan nan nan nan nan nan -0 -0 nan nan nan nan nan nan nan nan nan -0 -0 -0 nan nan nan nan nan nan nan nan nan nan nan nan nan nan nan nan nan nan nan nan nan nan -1 -1 nan nan nan nan nan nan nan nan nan nan nan nan nan nan nan nan nan nan nan nan nan nan nan nan nan nan nan
nan nan nan nan nan nan nan nan nan nan nan nan nan nan nan nan nan nan nan nan nan nan nan -0 -0 -0 -0 nan nan nan nan nan nan nan -0 nan nan nan nan nan nan nan nan nan nan nan nan nan nan nan nan nan nan nan nan nan nan nan -1 -1 -1 -1 nan nan nan nan nan nan nan nan nan nan nan nan nan nan nan nan nan nan nan nan nan nan nan nan
nan nan nan nan nan nan nan nan nan nan nan nan nan nan nan nan nan nan nan nan nan nan nan nan nan nan -0 -0 -0 -0 nan nan nan nan nan nan nan nan nan nan nan nan nan nan nan nan nan nan nan nan nan nan nan nan nan nan nan nan -0 -1 -1 -2 nan nan nan nan nan nan nan nan nan nan nan nan nan nan nan nan nan nan nan nan nan nan nan nan
nan nan nan nan nan nan nan nan nan nan nan nan nan nan nan nan nan nan nan nan nan nan nan nan nan nan nan -0 -0 -0 -0 nan nan nan nan nan nan nan nan nan nan nan nan nan nan nan nan nan nan nan nan nan nan nan nan nan nan nan nan nan nan nan nan nan nan nan nan nan nan nan nan nan nan nan nan nan nan nan nan nan nan nan nan nan nan nan
nan nan nan nan nan nan nan nan nan nan nan nan nan nan nan nan nan nan nan nan nan nan nan nan nan nan nan -0 -0 -0 -0 nan nan nan nan nan nan nan nan nan nan nan nan nan nan nan nan nan nan nan nan nan nan nan nan nan nan nan nan nan nan nan nan nan nan nan nan nan nan nan nan nan nan nan nan nan nan nan nan nan nan nan nan nan nan nan
nan nan nan nan nan nan nan nan nan nan nan nan nan nan nan nan nan nan nan nan nan nan nan nan nan nan nan nan nan nan nan nan nan nan nan nan nan nan nan nan nan nan nan nan nan nan nan nan nan nan nan nan nan nan nan nan nan -0 nan nan nan nan nan nan nan nan nan nan nan nan nan nan nan nan nan nan nan nan nan nan nan nan nan nan nan nan
nan nan nan nan nan nan nan nan nan nan nan nan nan nan nan nan nan nan nan nan nan nan nan nan nan nan nan nan nan nan nan nan nan nan nan nan nan nan nan nan nan nan nan nan nan nan nan nan nan nan nan nan nan nan nan nan nan -0 nan nan nan nan nan nan nan nan nan nan nan nan nan nan nan nan nan nan nan nan nan nan nan nan nan nan nan nan
nan nan nan nan nan nan nan nan nan nan nan nan nan nan nan nan nan nan nan nan nan nan nan nan nan nan nan nan nan nan nan nan nan nan nan nan nan nan nan nan nan nan nan nan nan nan nan nan nan nan nan nan nan nan nan nan nan nan nan nan nan nan nan nan nan nan nan nan nan nan nan nan nan nan nan nan nan nan nan nan nan nan nan nan nan nan
nan nan nan nan nan nan nan nan nan nan nan nan nan nan nan nan nan nan nan nan nan nan nan nan nan nan nan nan nan nan nan nan nan nan nan -0 nan nan nan nan nan nan nan nan nan nan nan nan nan nan nan nan nan nan nan nan nan nan nan nan nan nan nan nan nan nan nan nan nan nan nan nan nan nan nan nan nan nan nan nan nan nan nan nan nan nan
nan nan nan nan nan nan nan nan nan nan nan nan nan nan nan nan nan nan nan nan nan nan nan nan nan nan nan nan nan nan nan nan nan nan nan -0 -0 -0 nan nan nan nan nan nan nan nan nan nan nan nan nan nan nan nan nan nan nan nan nan nan nan nan nan nan nan nan nan nan nan nan nan nan nan nan nan nan nan nan nan nan nan nan nan nan nan nan
nan nan nan nan nan nan nan nan nan nan nan nan nan nan nan nan nan nan nan nan nan nan nan nan nan nan nan nan nan nan nan nan nan nan nan nan nan nan nan nan nan nan nan nan nan nan nan nan nan nan nan nan nan nan nan nan nan nan nan nan nan nan nan nan nan nan nan nan nan nan nan nan nan nan nan nan nan nan nan nan nan nan nan nan nan nan
nan nan nan nan nan nan nan nan nan nan nan nan nan nan nan nan nan nan nan nan nan nan nan nan nan nan nan nan nan nan nan nan nan nan nan nan nan nan nan nan nan nan nan nan nan nan nan nan nan nan nan nan nan nan nan nan nan nan nan nan nan nan nan nan nan nan nan nan nan nan nan nan nan nan nan nan nan nan nan nan nan nan nan nan nan nan
nan nan nan nan nan nan nan nan nan nan nan nan nan nan nan nan nan nan nan nan nan nan nan nan nan nan nan nan nan nan nan nan nan nan nan nan nan nan nan nan nan nan nan nan nan nan nan nan nan nan nan nan nan nan nan nan nan nan nan nan nan nan nan nan nan nan nan nan nan nan nan nan nan nan nan nan nan nan nan nan nan nan nan nan nan nan
nan nan nan nan nan nan nan nan nan nan nan nan nan nan nan nan nan nan nan nan nan nan nan nan nan nan nan nan nan nan nan nan nan nan nan nan nan nan nan nan nan nan nan nan nan nan nan nan nan nan nan nan nan nan nan nan nan nan nan nan nan nan nan nan nan nan nan nan nan nan nan nan nan nan nan nan nan nan nan nan nan nan nan nan nan nan
nan nan nan nan nan nan nan nan nan nan nan nan nan nan nan nan nan nan nan nan nan nan nan nan nan nan nan nan nan nan nan nan nan nan nan nan nan nan nan nan nan nan nan nan nan nan nan nan nan nan nan nan nan nan nan nan nan nan nan nan nan nan nan nan nan nan nan nan nan nan nan nan nan nan nan nan nan nan nan nan nan nan nan nan nan nan
nan nan nan nan nan nan nan nan nan nan nan nan nan nan nan nan nan nan nan nan nan nan nan nan nan nan nan nan nan nan nan nan nan nan nan nan nan nan nan nan nan nan nan nan nan nan nan nan nan nan nan -0 nan nan nan nan nan nan nan nan nan nan nan nan nan nan nan nan nan nan nan nan nan nan nan nan nan nan nan nan nan nan nan nan nan nan
Wind_Speed
4 3 4 4 3 4 6 9 8 6 5 5 5 5 5 5 5 5 6 5 5 5 5 5 5 6 8 10 11 12 13 13 13 12 11 11 11 11 12 14 16 17 18 18 18 18 17 17 16 16 15 16 17 19 20 22 23 25 26 27 27 27 27 26 26 25 25 25 25 25 25 25 25 25 25 24 23 23 21 20 19 19 18 17 17 16
4 3 3 5 4 4 5 9 8 6 6 6 6 6 6 6 5 5 5 5 5 4 4 4 5 6 7 7 8 9 10 11 11 11 11 11 11 11 12 13 15 16 18 18 18 17 16 15 14 15 15 16 18 19 20 21 22 23 24 25 25 26 26 26 25 25 25 24 24 24 24 24 24 24 24 24 23 23 22 21 20 19 18 18 17 17
4 3 3 4 4 4 4 8 8 7 7 7 7 7 8 7 6 4 4 4 4 4 4 5 5 5 7 6 6 8 9 11 12 13 12 12 12 12 12 13 14 15 17 17 17 16 15 14 14 15 16 18 19 20 20 20 21 21 22 22 23 24 24 24 24 24 24 24 24 24 24 24 23 23 23 23 23 22 22 21 20 20 19 18 18 17
4 3 3 3 3 4 4 6 7 7 5 7 8 8 8 7 5 4 3 3 3 4 5 7 6 6 6 6 6 8 11 13 15 15 15 15 14 14 13 13 13 14 15 16 16 15 15 15 16 18 20 21 21 21 21 20 20 20 20 21 21 22 22 23 23 23 23 23 23 23 23 22 22 22 22 22 22 22 21 21 21 20 20 19 18 18
5 4 3 2 3 4 4 5 6 7 5 6 7 8 8 6 5 3 3 3 3 4 5 6 6 5 5 5 7 10 12 14 16 16 17 17 16 16 16 16 16 16 16 17 17 17 18 19 21 23 24 23 23 22 21 21 20 20 20 20 20 21 21 22 22 22 22 22 22 22 21 21 21 21 21 21 21 21 21 21 21 20 20 19 19 18
6 5 4 3 3 3 2 2 4 5 6 5 6 7 7 6 5 4 3 3 3 3 4 4 5 5 6 6 8 11 13 14 15 16 16 17 17 17 18 18 19 19 19 20 20 21 22 23 25 25 25 24 24 23 22 21 20 20 20 20 20 21 21 22 22 22 22 22 21 21 21 20 20 20 20 21 21 21 21 21 21 20 20 19 19 18
5 4 4 4 3 2 1 2 3 5 6 6 5 5 5 5 5 5 4 4 4 4 3 4 5 6 7 7 9 11 12 13 14 15 16 17 17 17 18 19 20 20 21 22 22 23 23 24 25 25 25 24 23 23 22 21 21 20 20 20 20 20 21 21 22 22 22 21 21 21 20 20 20 20 20 20 20 20 20 20 20 20 20 19 19 19
5 5 4 5 4 3 2 2 3 5 7 6 5 4 3 3 4 4 5 5 4 4 3 4 5 6 7 8 8 9 10 11 11 12 14 15 16 17 18 19 19 20 21 21 21 22 22 22 23 23 22 22 22 22 21 21 20 20 20 20 20 20 21 21 22 22 22 22 21 21 20 20 19 19 19 19 19 19 19 20 20 20 20 19 19 19
6 6 5 6 5 4 4 3 3 4 5 6 5 4 4 4 4 4 4 4 4 4 4 4 5 6 6 7 8 8 8 8 8 8 10 11 13 15 17 18 19 20 20 20 20 20 20 20 20 20 20 20 20 21 21 20 20 20 20 19 20 20 20 21 22 22 22 22 21 21 20 19 18 18 18 18 18 18 18 19 19 20 20 19 19 19
8 7 6 6 6 6 5 4 4 4 4 5 5 5 5 5 5 5 5 5 4 4 4 5 6 6 6 7 7 7 7 7 7 7 7 8 10 13 15 16 17 18 21 21 20 20 19 19 19 18 18 19 19 19 19 19 19 19 19 19 19 20 20 21 22 22 22 22 21 20 19 19 18 17 17 17 17 17 17 18 18 18 19 19 19 19
7 8 6 6 5 5 5 5 4 3 3 4 5 6 6 6 6 6 7 6 5 5 4 5 5 6 7 7 7 7 7 7 6 6 7 8 10 11 12 13 15 17 21 21 21 21 21 20 19 18 18 18 18 18 18 18 18 19 19 19 19 20 20 21 22 22 22 21 20 20 19 18 18 17 17 17 16 16 16 16 17 17 17 17 18 18
6 6 5 5 5 4 4 4 3 3 3 4 5 6 7 7 7 6 7 7 6 6 5 5 5 6 7 7 7 7 6 6 6 6 6 6 7 8 9 10 12 14 16 18 20 22 23 23 22 20 19 18 18 18 17 17 17 18 18 18 19 19 20 20 21 21 21 21 20 19 18 18 17 17 17 16 16 16 15 15 15 15 16 16 16 17
4 4 5 5 5 5 4 4 3 3 3 4 5 5 6 7 7 7 6 6 6 6 5 5 5 5 6 6 7 7 7 7 6 6 6 5 5 5 6 6 7 8 10 11 13 16 20 22 23 22 22 21 20 20 19 18 18 18 18 18 18 19 19 19 19 20 20 19 19 18 18 18 17 17 16 16 16 15 15 15 15 15 15 15 16 16
4 4 5 6 6 6 5 5 5 5 5 5 4 4 3 5 6 8 7 7 6 6 5 6 6 5 3 4 6 7 7 7 6 5 5 5 5 6 6 6 6 6 6 7 8 10 14 15 16 18 22 23 23 23 22 21 20 20 20 20 19 19 19 18 18 18 18 18 17 17 17 17 17 17 16 16 15 15 15 15 15 15 15 16 16 16
4 5 6 6 6 6 5 6 6 6 5 5 4 3 2 5 6 8 8 8 7 6 5 6 6 4 2 1 3 6 8 6 6 5 5 5 6 6 7 7 7 7 7 7 8 9 11 11 11 12 15 19 21 22 22 23 24 24 24 23 23 22 22 20 19 18 18 17 17 17 17 17 17 16 16 16 15 15 15 15 15 15 16 16 17 17
3 4 6 7 6 6 5 6 5 5 5 5 4 4 4 5 6 7 6 7 6 6 6 7 6 5 2 1 1 4 8 7 6 6 6 5 5 6 8 8 7 7 7 7 8 9 10 9 10 10 12 16 18 20 21 23 25 26 26 27 27 26 26 25 23 22 21 20 19 18 18 18 17 17 17 16 16 15 15 15 16 16 16 17 17 17
4 4 3 4 5 6 6 6 6 5 5 5 5 5 5 6 6 6 6 5 5 5 6 7 7 6 4 2 1 3 7 8 7 7 6 5 4 4 7 7 7 7 7 7 7 8 8 9 9 10 12 15 18 20 20 22 23 24 25 26 26 26 26 25 24 23 22 21 21 20 19 19 18 18 17 17 16 16 16 16 16 17 17 17 17 17
6 6 7 6 4 3 3 3 3 2 2 3 4 5 5 6 6 6 6 5 6 6 7 7 7 7 7 5 3 3 5 8 8 7 7 6 5 4 6 6 6 6 7 7 7 7 7 8 9 10 11 16 18 20 20 21 22 23 23 23 24 24 24 23 23 22 22 21 21 20 20 19 18 18 18 17 17 17 17 17 17 17 17 17 17 17
5 6 6 6 5 4 4 5 4 4 3 1 1 4 7 8 8 7 7 5 6 7 9 8 8 7 7 7 5 4 5 8 8 8 7 6 5 4 5 7 7 6 7 6 6 6 6 8 9 11 14 17 18 19 20 21 21 22 22 22 22 22 22 22 21 21 21 20 20 20 19 19 19 18 18 18 18 18 18 18 18 18 17 17 17 16
6 6 6 6 6 5 5 4 4 4 3 3 2 2 7 8 7 7 7 6 6 6 8 9 9 8 7 7 5 4 5 7 8 7 6 5 4 3 5 7 8 8 7 6 5 5 6 8 10 12 15 17 18 19 19 20 20 21 21 21 21 21 21 21 21 20 20 20 20 20 19 19 19 19 19 19 19 19 19 18 18 18 17 17 17 16
7 7 7 7 6 5 4 4 4 4 4 4 3 1 4 6 6 5 5 5 6 7 8 7 8 8 7 7 5 4 4 7 8 7 5 4 3 3 3 7 8 8 7 5 5 6 8 8 8 10 12 15 17 18 19 20 20 21 21 21 21 21 20 20 20 20 20 20 20 20 20 19 19 20 20 20 20 19 19 19 18 18 17 17 16 16
7 7 7 8 7 6 5 5 5 5 5 5 4 3 1 2 4 4 5 5 6 6 6 6 6 7 7 6 3 2 2 6 8 7 6 5 3 2 2 5 6 6 5 4 6 7 8 8 8 9 12 15 17 18 18 19 20 20 21 21 21 20 20 20 20 20 20 20 20 20 20 20 20 20 20 20 20 19 19 18 18 18 17 17 16 15
7 7 7 7 7 7 6 5 5 5 6 5 5 3 3 3 2 2 4 4 3 3 3 4 6 7 7 6 3 2 2 5 7 7 7 6 4 3 3 4 5 5 4 4 5 7 8 8 8 9 12 16 17 17 18 19 20 20 21 21 21 20 20 20 20 20 20 20 20 20 20 20 20 20 20 20 19 19 19 18 18 17 17 16 15 15
8 7 7 7 6 6 6 5 5 5 6 5 4 3 3 3 3 2 2 4 4 4 4 6 8 8 7 6 4 3 3 4 5 6 6 6 5 4 3 4 6 6 4 4 4 6 7 7 7 8 10 15 17 18 19 19 20 21 21 21 21 21 21 20 20 20 20 20 20 20 20 20 20 20 20 19 19 18 18 17 17 17 16 15 15 14
9 9 8 8 9 10 9 9 10 10 9 7 6 5 5 3 2 3 5 5 5 5 6 7 8 7 5 5 4 4 3 3 4 6 6 5 5 5 4 5 6 6 4 4 4 5 6 6 6 7 8 13 16 19 20 20 21 21 21 21 21 21 21 21 21 21 21 21 21 21 20 20 20 20 19 19 18 18 17 17 16 16 15 14 14 13
15 15 15 16 17 19 20 21 22 22 20 14 10 7 6 4 3 4 5 4 4 6 7 8 7 6 4 4 4 3 2 3 3 4 6 6 6 5 4 5 5 5 5 4 5 6 7 6 6 6 6 10 14 18 20 21 22 22 22 22 22 21 21 21 21 21 21 21 21 21 20 20 20 19 19 18 18 17 17 16 16 15 14 13 12 11
23 24 24 24 25 25 26 28 29 29 28 24 19 15 9 7 6 5 5 3 2 4 7 8 7 6 5 4 4 3 2 3 3 3 4 6 7 6 5 4 5 5 6 5 6 7 8 7 6 6 6 7 10 15 20 22 22 22 22 22 22 22 21 21 21 21 21 21 21 20 20 20 19 19 18 18 17 16 16 15 14 13 12 11 10 9
24 24 25 25 26 26 26 27 28 29 30 29 27 23 15 11 9 8 7 6 3 1 5 7 7 6 5 4 4 3 4 3 3 3 2 5 7 6 5 5 5 6 6 5 6 7 9 7 6 5 5 6 9 12 18 20 21 21 22 22 22 22 21 21 21 21 21 20 20 20 20 19 19 18 17 17 16 15 14 13 12 11 10 8 6 5
20 22 22 24 24 24 24 24 25 27 29 29 28 24 17 12 9 7 6 7 5 1 4 5 6 6 6 5 5 4 4 4 4 4 1 5 6 6 5 5 6 6 6 6 5 6 7 6 5 4 4 7 8 10 12 15 17 18 19 21 21 21 21 21 21 21 20 20 20 19 19 18 18 17 16 15 14 13 12 11 10 8 6 5 4 4
16 17 18 19 20 20 19 18 19 22 26 27 26 22 16 11 8 7 6 6 5 3 3 5 6 6 6 6 5 4 4 3 4 4 1 4 6 6 6 6 6 6 6 6 5 5 4 4 4 4 4 6 7 8 8 9 11 12 13 16 18 19 20 21 20 20 20 20 19 19 18 17 17 16 15 14 12 11 10 9 7 5 3 3 3 3
13 13 13 14 14 14 14 14 15 16 19 21 21 18 14 11 9 7 7 7 7 5 3 5 6 6 6 6 5 4 3 2 3 4 2 3 6 6 6 7 6 6 5 6 6 5 4 2 3 4 5 5 6 6 6 7 7 8 8 10 12 14 18 19 19 19 19 19 18 18 17 16 16 15 14 12 11 10 8 7 5 4 3 3 3 3
11 11 10 11 11 11 11 12 12 12 14 15 14 14 13 12 10 9 8 8 7 7 6 4 4 4 4 4 4 4 3 1 3 4 3 2 4 6 6 7 6 5 4 4 5 6 5 3 2 2 4 4 5 5 5 6 6 6 7 8 8 10 15 15 16 16 16 17 17 17 16 16 15 14 13 12 10 9 8 7 5 3 2 2 3 3
10 9 9 9 10 10 10 11 11 11 11 11 11 11 11 11 11 10 9 8 8 8 7 5 4 4 5 6 6 5 3 2 3 5 4 0 3 5 5 6 6 5 3 3 4 5 6 5 4 3 3 4 4 4 5 5 5 5 6 6 6 7 10 10 11 11 11 12 13 14 14 14 13 13 12 11 10 9 8 7 6 5 3 2 2 2
10 10 10 9 9 10 10 11 11 11 10 10 11 11 10 10 10 10 10 9 9 8 8 7 6 5 5 5 5 5 4 2 4 5 5 1 2 5 5 5 6 6 5 4 4 5 5 5 5 5 4 3 4 4 4 5 5 5 5 5 5 5 6 6 6 7 8 8 8 8 9 10 10 10 10 10 9 8 8 7 7 6 5 4 3 2
10 10 10 10 9 10 10 11 11 11 10 10 10 10 10 10 9 10 10 10 9 9 8 8 7 6 5 4 4 4 3 3 5 6 5 2 1 4 5 5 5 6 6 6 6 6 5 6 6 6 5 4 3 3 3 4 4 4 5 5 5 4 4 4 5 5 5 5 5 5 5 5 6 6 7 7 7 7 7 7 7 7 6 5 4 3
10 10 10 10 10 10 10 10 10 10 10 9 9 9 9 9 9 9 9 9 9 9 10 9 9 8 7 6 6 5 4 3 5 6 6 3 1 2 4 3 4 5 6 7 8 7 7 6 6 7 7 6 4 3 3 3 4 4 5 5 5 4 4 4 4 4 4 5 4 4 4 4 4 4 5 6 7 7 7 7 6 6 6 5 5 4
9 10 10 10 10 9 9 9 9 9 9 9 8 9 9 9 9 9 9 9 9 9 10 10 11 11 11 9 7 6 4 4 6 7 8 5 4 3 4 3 3 4 5 7 8 9 8 8 7 7 6 6 5 4 3 3 3 4 4 4 4 4 4 4 4 4 4 5 5 4 4 4 4 4 4 5 6 6 6 6 5 5 4 4 3 3
9 9 9 9 9 9 9 9 9 9 8 8 8 8 8 9 9 9 8 9 10 10 10 9 10 11 14 13 11 9 8 8 9 10 10 8 6 5 5 4 3 3 4 6 8 10 10 9 8 7 5 5 5 5 5 4 4 4 4 4 4 3 3 3 3 4 4 5 5 5 5 5 4 4 4 4 4 4 4 4 4 3 3 3 2 2
9 9 9 9 9 9 8 8 8 8 8 8 8 8 7 8 9 9 8 9 9 10 10 9 9 10 12 13 14 14 13 12 12 12 11 9 7 6 5 5 4 4 4 4 6 8 9 9 8 8 7 6 6 5 4 4 5 5 5 4 4 3 3 3 3 3 4 4 5 5 5 4 4 3 3 3 3 2 2 3 3 3 2 2 2 3
8 8 8 9 8 8 8 8 8 7 7 7 8 8 7 7 7 8 8 8 8 9 9 9 9 9 10 11 13 14 14 13 13 12 11 10 8 6 6 5 5 4 4 4 4 5 6 7 7 8 8 7 7 6 5 4 5 5 6 4 3 3 3 3 3 3 3 4 4 4 4 3 3 3 3 2 2 2 2 2 2 2 1 1 0 1
8 8 8 7 7 7 7 7 7 7 7 7 7 7 7 7 7 7 7 8 8 8 7 8 8 8 9 10 12 13 14 14 14 14 12 12 11 9 6 5 5 5 5 6 5 5 5 6 7 7 7 8 8 7 7 6 6 7 6 5 4 4 4 3 3 3 3 3 3 3 4 4 3 3 3 3 2 2 2 2 2 2 1 1 1 1
9 8 7 7 7 7 7 7 7 7 7 7 7 7 7 7 7 7 7 7 7 7 7 7 7 7 8 9 10 12 13 13 14 14 14 14 13 11 8 6 5 5 6 7 7 7 6 7 7 7 7 7 7 7 6 6 6 6 6 6 6 5 5 4 3 2 3 3 3 3 4 3 3 3 3 3 2 2 2 2 2 2 1 1 1 1
8 8 7 7 7 7 7 7 7 7 7 7 7 8 7 7 7 7 7 7 7 7 7 7 6 6 7 8 8 9 11 12 13 14 14 14 13 12 10 9 7 6 6 7 7 8 8 8 7 7 6 6 7 7 8 7 6 6 6 6 6 5 3 3 2 2 3 3 3 3 3 3 3 2 2 2 2 2 2 2 2 1 1 0 0 0
8 7 7 7 7 7 7 7 7 7 7 8 8 8 8 8 8 8 7 7 7 7 7 6 6 6 7 8 8 8 8 10 12 13 14 15 15 13 11 11 10 8 8 7 7 7 7 8 7 7 6 6 6 7 7 6 6 6 5 5 5 5 4 4 3 3 3 3 3 3 3 2 2 2 2 2 2 2 2 2 2 2 2 1 1 1
7 7 7 7 7 8 8 8 8 8 8 8 8 8 8 8 8 8 7 7 7 7 7 6 5 5 7 7 7 7 7 8 9 10 11 14 15 15 13 11 10 10 9 8 7 7 7 7 7 6 5 6 6 7 6 6 6 5 5 5 5 5 5 4 4 3 3 3 3 2 2 2 1 1 1 2 2 2 2 1 1 1 2 1 1 1
7 7 8 7 8 8 9 8 8 8 8 8 9 8 8 8 8 8 8 8 8 8 7 7 7 7 7 7 7 7 7 7 8 8 8 9 11 11 11 11 10 9 9 9 8 8 7 7 6 6 6 6 6 6 6 6 6 5 5 5 5 5 5 4 4 4 4 3 3 2 2 1 1 1 1 1 1 1 1 1 1 1 1 1 1 1
8 8 8 7 7 8 8 8 8 8 8 8 9 9 8 8 8 8 8 8 8 7 7 7 8 8 8 8 7 7 7 7 7 7 7 8 8 9 9 9 9 10 9 9 9 9 9 8 7 6 6 6 6 6 5 5 5 5 5 5 5 5 4 3 3 3 4 3 3 2 2 1 1 1 1 1 1 0 1 1 1 1 1 1 1 1
8 8 7 7 7 7 8 8 8 8 8 8 8 8 8 9 9 9 8 8 8 7 7 7 8 8 8 8 8 8 8 7 7 7 7 7 7 7 7 7 7 8 9 9 10 10 10 9 9 7 6 5 5 5 5 5 4 4 4 4 4 4 4 3 3 3 3 3 3 2 2 1 1 1 1 1 0 0 1 1 1 1 1 1 1 1
7 7 7 7 7 7 7 7 8 8 8 8 8 7 8 9 10 10 8 8 7 7 7 7 8 8 8 7 8 8 8 7 7 6 6 6 5 5 5 5 5 6 6 8 8 9 9 10 11 10 8 7 5 5 4 4 4 3 3 3 3 4 4 3 3 3 3 3 3 2 2 2 2 2 1 1 1 1 1 1 1 1 1 1 1 1
7 7 7 7 7 7 7 7 7 7 7 8 7 7 7 7 8 8 7 7 7 7 7 7 7 7 7 7 7 7 7 7 6 6 6 5 4 4 4 4 4 4 4 5 5 6 6 7 9 11 13 11 8 5 4 3 3 3 3 3 3 3 3 3 3 3 3 3 3 2 2 1 1 1 0 1 1 1 1 1 1 1 1 1 1 1
7 7 7 6 7 7 7 7 7 7 7 7 7 7 6 6 7 7 7 7 7 7 7 7 7 7 7 7 7 7 7 6 6 6 6 5 4 3 3 3 3 3 3 3 3 3 4 4 5 7 10 13 13 10 4 3 3 3 3 3 2 2 2 3 3 3 3 3 2 2 1 1 0 0 0 0 1 1 1 1 1 1 0 1 1 1
Wind_Direction
267 282 296 297 294 281 268 248 224 188 154 141 150 168 191 200 203 201 195 190 190 193 192 186 180 177 177 177 177 178 178 179 178 176 170 169 170 174 179 183 185 186 185 182 179 176 173 172 175 178 181 177 169 161 153 149 146 144 143 142 142 142 142 142 141 141 140 140 139 139 139 139 139 138 138 136 135 134 132 130 127 126 124 123 122 120
259 265 269 277 278 274 268 258 241 206 157 152 160 174 188 196 200 201 196 196 199 204 206 196 185 176 172 165 167 171 172 173 172 168 159 155 156 160 165 171 175 177 177 175 173 172 171 173 175 176 174 171 164 158 153 149 146 145 144 143 143 142 142 141 139 138 137 137 136 137 137 137 138 137 136 135 134 132 131 130 128 127 126 125 123 121
250 253 251 263 269 271 268 262 251 226 173 164 168 180 188 193 196 197 193 195 203 214 225 220 207 192 181 170 160 155 152 149 145 141 137 135 136 139 145 153 159 164 167 168 168 169 172 173 171 166 161 155 151 149 146 145 144 143 142 142 141 140 139 137 136 135 134 134 134 134 134 135 136 135 134 133 132 131 130 129 129 128 127 126 125 123
240 243 243 248 257 263 268 265 257 244 200 172 172 180 187 190 192 193 186 181 193 212 227 221 212 198 186 173 155 142 136 130 127 123 119 117 117 118 122 128 136 143 151 155 158 161 164 161 156 150 145 142 140 139 139 139 139 139 138 138 136 135 134 133 132 132 131 131 131 132 132 133 133 133 132 131 130 130 130 130 130 129 128 127 126 124
232 232 236 235 245 256 269 271 266 257 235 189 176 176 184 186 186 183 171 157 173 198 215 208 195 178 161 152 142 134 129 123 120 116 112 109 107 107 106 109 113 119 126 133 138 143 146 144 140 138 136 135 135 135 135 135 135 135 134 133 132 131 130 130 129 129 128 128 128 128 129 130 130 130 129 129 129 130 131 131 130 130 129 128 127 126
230 229 231 231 236 246 272 277 271 262 251 222 192 178 179 178 177 171 158 148 166 186 191 176 159 144 133 130 130 129 126 123 121 118 114 110 106 103 101 101 102 104 109 115 120 126 130 131 131 131 132 133 133 133 133 133 132 131 130 129 128 128 127 127 127 126 125 125 125 125 126 127 127 128 128 129 129 130 131 131 131 130 130 129 128 127
229 226 226 231 235 239 252 255 254 251 248 238 219 193 177 170 167 162 151 154 168 177 164 140 126 120 118 120 123 125 126 125 125 124 121 117 113 108 104 101 99 99 101 105 109 113 118 121 124 126 128 129 130 130 130 130 129 128 127 127 127 126 126 125 125 124 123 122 123 123 124 125 126 127 128 129 130 130 131 131 131 131 130 129 128 127
231 222 219 225 229 232 234 237 236 237 239 238 230 213 185 168 161 156 146 154 165 170 154 132 121 117 117 119 121 123 126 128 129 129 127 125 122 118 113 108 104 101 100 101 103 106 109 112 115 118 121 124 125 126 127 126 126 125 125 125 125 126 125 124 123 122 121 121 122 123 124 125 126 127 128 129 129 130 130 131 131 131 130 130 128 127
237 226 217 219 220 222 225 229 227 225 230 234 232 220 197 179 171 165 154 159 167 169 155 135 126 123 122 123 124 125 126 130 133 135 135 134 131 128 124 119 113 109 107 106 105 104 104 106 108 111 114 117 119 121 122 123 123 123 123 124 124 124 124 123 122 121 120 121 122 123 124 125 126 127 127 128 128 129 130 130 131 131 130 129 128 127
241 234 223 220 219 219 219 221 219 214 212 226 230 227 213 188 176 172 170 171 171 168 159 141 133 129 128 128 127 127 127 128 128 129 131 130 133 134 131 127 123 121 121 119 116 113 111 110 109 109 110 112 113 114 117 118 119 120 121 122 122 122 122 121 121 120 120 121 123 124 125 125 125 126 126 126 127 127 128 129 129 129 128 128 127 126
240 237 230 224 221 221 219 214 204 192 191 215 226 228 224 206 186 173 169 168 167 165 160 147 140 136 134 132 129 127 126 125 121 116 113 114 121 125 125 126 128 129 130 129 128 127 126 124 121 118 117 115 113 113 114 114 115 117 118 119 120 120 120 120 120 120 121 122 123 124 125 125 124 124 124 124 124 125 125 125 125 125 125 125 124 123
233 233 231 225 222 220 220 206 185 165 172 204 217 221 219 211 201 185 169 161 158 157 155 148 144 143 142 137 132 129 126 124 122 119 112 110 111 112 115 119 123 128 132 134 136 137 137 137 135 133 130 126 123 120 118 116 116 117 116 117 117 118 118 118 119 120 121 123 124 124 124 124 124 123 122 122 121 121 121 120 120 120 120 120 120 119
231 228 229 226 222 218 214 198 181 170 175 196 208 213 210 205 203 198 184 163 153 150 150 146 144 143 143 139 137 133 129 124 122 121 120 119 118 117 116 117 120 125 130 134 139 142 143 144 143 142 141 138 136 133 130 128 125 122 120 119 117 116 116 116 117 118 121 122 123 124 124 123 122 121 120 119 118 117 116 116 115 115 115 115 115 115
233 227 227 228 225 219 210 197 189 186 185 190 199 207 206 199 201 201 198 182 166 151 142 139 135 132 125 131 139 140 133 127 122 119 120 122 125 126 124 123 122 124 129 134 139 144 147 148 147 147 148 146 144 141 140 137 135 133 130 127 123 121 119 117 117 118 120 120 122 123 122 122 121 120 118 117 115 114 113 112 112 111 111 111 111 111
236 228 227 228 225 219 210 199 194 192 189 183 182 187 194 196 198 198 196 187 173 155 137 131 126 118 91 85 138 144 136 131 127 124 122 122 126 128 128 125 124 126 132 136 140 145 148 149 149 149 151 151 150 149 147 146 144 142 140 137 134 132 129 128 126 126 125 125 125 125 124 123 122 121 119 117 114 112 111 110 109 109 108 108 108 108
262 241 230 227 223 218 206 194 190 189 185 177 173 175 190 197 196 193 188 178 165 150 139 135 131 125 101 43 114 143 140 136 133 129 126 122 124 129 130 125 125 126 131 135 140 144 147 147 147 148 150 149 148 148 146 149 148 146 144 143 141 139 138 138 137 136 136 134 133 132 130 128 126 124 121 118 115 112 110 108 108 107 107 107 107 106
349 324 292 254 235 228 225 213 200 186 176 174 174 178 189 198 197 192 186 171 158 149 148 144 141 138 135 127 131 143 145 139 135 129 125 122 124 130 130 123 121 123 126 130 136 140 143 144 143 143 142 141 139 139 139 141 141 141 141 140 139 139 138 138 138 138 138 137 135 134 132 130 128 125 121 118 115 112 110 109 108 107 107 107 106 105
20 8 357 348 331 299 287 285 263 234 194 180 177 180 192 202 203 198 188 173 161 155 152 149 147 145 143 147 152 154 147 138 133 127 123 122 124 128 129 121 117 117 122 128 132 136 139 138 136 134 132 132 132 132 133 133 134 134 133 133 133 132 132 132 133 133 133 132 131 130 129 128 125 123 120 117 114 112 110 109 108 108 107 106 105 103
30 22 11 2 358 359 1 4 3 358 346 324 202 189 195 205 206 201 194 181 168 160 154 151 149 147 143 142 144 146 141 134 131 127 121 117 115 119 127 120 117 116 121 128 134 137 134 125 121 121 124 126 127 128 129 129 129 128 127 127 126 126 125 125 126 126 126 126 126 126 125 124 122 120 118 116 114 113 111 110 109 108 107 105 103 101
27 23 15 359 348 345 351 356 357 355 352 345 324 225 202 206 206 201 193 185 176 166 155 150 148 146 140 136 135 136 135 131 127 121 115 107 101 106 125 126 125 125 126 130 132 128 118 111 112 117 122 124 125 126 127 127 126 126 125 124 123 122 122 122 123 123 124 124 124 124 123 122 121 120 118 117 115 114 112 111 110 108 106 104 102 100
23 20 12 359 349 342 343 339 337 339 346 354 348 284 212 207 206 202 187 180 177 171 162 154 148 143 134 129 127 126 131 129 126 121 115 102 89 90 119 126 125 123 121 121 117 112 108 110 114 119 122 124 125 126 126 125 125 124 123 122 121 121 121 121 122 122 123 123 123 123 122 122 121 120 119 117 116 114 113 111 110 108 106 103 101 98
20 14 5 357 349 339 331 324 330 344 359 16 19 11 321 222 208 194 178 173 170 166 156 144 132 122 113 111 106 99 115 128 127 124 118 108 94 81 91 110 109 105 101 103 106 108 108 110 114 120 124 125 125 125 124 123 123 122 121 121 120 120 120 120 121 122 122 122 122 122 122 121 120 119 118 116 115 114 112 111 109 107 105 102 100 97
19 11 3 358 348 335 324 322 335 356 13 24 27 20 351 326 294 229 177 150 136 126 112 97 91 90 90 89 81 63 74 117 123 122 117 114 109 99 79 92 93 89 82 85 95 101 102 105 111 117 121 124 124 123 122 121 121 120 119 119 119 119 119 120 121 121 121 122 122 121 121 120 119 117 116 115 113 112 111 109 107 105 103 101 99 97
19 13 8 1 350 337 324 333 355 14 21 20 12 355 328 317 321 346 91 101 102 101 98 93 89 88 86 85 75 61 51 94 116 121 114 114 112 106 95 95 92 87 75 67 77 89 94 99 107 116 121 122 121 120 119 118 118 117 117 117 118 118 119 119 120 121 121 121 121 120 119 118 117 115 114 113 111 110 108 107 105 103 101 100 98 97
20 18 15 10 5 3 4 16 26 31 29 21 8 350 329 333 18 63 79 94 104 110 111 106 105 103 102 94 82 64 41 64 103 119 116 113 110 105 98 97 97 93 79 63 67 78 88 91 99 109 116 118 117 116 115 115 115 115 115 116 117 117 118 119 119 120 120 120 120 119 118 116 115 113 112 110 109 107 105 104 103 101 100 98 97 97
21 19 18 16 16 17 21 29 33 35 33 29 21 6 347 355 32 69 78 89 108 120 121 115 113 113 112 103 93 79 50 54 83 110 119 118 113 107 95 93 95 94 86 70 66 72 79 81 84 91 102 110 112 112 112 112 113 113 114 115 116 116 117 118 118 119 119 118 118 117 116 114 113 111 110 108 106 105 104 103 103 101 100 99 97 97
21 19 18 17 18 20 23 28 31 33 33 32 29 24 14 15 27 41 42 38 78 123 126 121 119 117 111 104 96 86 65 54 60 82 112 119 116 110 103 102 102 100 92 77 67 66 70 70 72 77 85 98 105 108 108 109 110 111 113 113 114 115 115 116 116 117 117 116 116 115 114 112 111 109 108 106 105 105 105 105 105 105 105 103 100 98
20 18 16 16 17 20 23 26 29 31 32 32 31 29 27 28 30 28 11 351 347 95 124 125 125 124 118 109 98 82 65 54 34 24 76 115 115 113 117 118 114 109 101 89 72 62 60 58 56 59 70 84 94 100 102 103 105 107 108 110 111 112 113 113 113 114 114 113 113 112 111 110 109 107 106 105 105 105 106 108 109 110 111 110 109 107
19 17 16 15 17 19 22 25 28 30 31 31 31 30 30 32 31 22 353 333 329 354 116 120 121 120 117 109 97 81 63 52 19 357 18 114 116 118 127 127 124 118 111 103 84 65 52 43 36 39 56 75 85 91 94 96 99 101 102 105 106 107 108 109 109 110 110 110 110 109 109 108 107 105 104 104 104 105 107 110 113 114 116 116 117 120
17 15 14 13 14 16 19 23 26 28 30 31 31 30 29 30 26 14 347 335 333 349 93 107 112 115 117 112 102 86 65 38 8 356 24 124 126 127 133 132 132 131 126 116 102 83 60 35 25 28 44 68 77 83 88 91 94 97 99 100 101 102 103 104 105 105 105 106 106 106 106 105 104 103 102 102 102 103 105 109 113 116 118 117 119 122
16 15 12 10 10 13 17 21 24 26 28 30 29 28 26 24 20 10 354 350 347 352 34 93 108 117 122 119 112 102 89 33 1 355 348 134 135 134 140 136 137 139 137 128 122 117 106 63 30 28 41 59 69 76 82 89 94 98 99 98 97 98 99 100 100 100 100 101 101 102 102 102 102 101 100 99 98 98 98 101 104 111 118 120 121 120
17 16 12 9 9 12 17 21 23 26 27 28 27 25 23 21 18 12 3 2 358 357 8 54 88 102 103 99 99 99 99 54 359 349 337 132 136 135 141 136 135 135 131 119 122 125 125 118 94 60 54 59 62 64 66 75 85 94 99 99 99 98 98 97 97 96 96 97 97 97 98 98 98 98 97 96 94 92 89 86 85 87 97 116 121 123
18 17 13 10 11 14 18 21 24 26 29 29 28 26 24 21 18 15 12 10 9 8 11 20 38 60 72 74 76 78 82 56 2 347 340 58 137 136 137 134 131 125 109 88 93 104 112 118 119 108 83 71 64 59 56 60 69 81 94 98 99 99 97 96 95 94 93 94 94 94 94 95 94 94 93 92 90 87 81 76 70 63 54 71 101 120
19 18 15 14 15 17 20 22 24 26 28 29 29 27 25 22 20 18 17 17 17 18 20 19 23 36 62 76 79 76 68 37 359 347 344 343 138 137 132 133 131 126 115 100 90 89 93 108 116 117 104 86 72 62 57 58 61 68 78 86 91 93 93 92 92 93 93 93 92 92 91 91 91 90 90 89 88 85 80 73 65 57 48 44 46 66
19 18 17 16 16 18 20 21 22 24 25 27 27 27 26 24 23 22 21 21 23 25 28 27 26 28 40 64 77 76 56 16 354 349 349 344 117 130 126 130 132 129 124 120 115 110 108 113 119 121 118 107 90 72 60 60 63 67 70 74 78 82 84 87 90 93 94 94 94 94 94 93 90 88 88 89 89 87 83 77 69 60 53 45 39 34
20 19 17 16 16 17 19 20 20 21 22 23 24 25 25 25 25 25 24 24 26 29 33 35 35 35 37 49 59 63 48 11 356 355 358 359 45 106 113 116 122 125 126 126 125 124 123 122 122 121 120 118 111 97 79 72 72 74 73 72 72 74 76 83 89 94 97 98 99 100 100 99 95 92 92 97 97 95 92 86 78 69 60 52 45 39
22 20 18 16 15 15 16 18 18 18 18 18 19 21 24 25 25 25 26 26 28 30 35 38 41 43 44 49 53 54 46 26 14 11 12 14 32 67 91 93 97 108 123 129 129 129 128 127 126 124 122 122 120 118 115 105 94 87 83 79 77 75 77 83 90 97 101 104 106 107 107 105 104 104 107 108 108 106 102 96 91 84 76 69 61 54
24 22 19 16 15 13 14 15 16 16 15 14 15 18 22 25 26 27 28 29 31 33 36 37 40 43 44 48 50 49 46 38 32 27 24 25 34 53 76 79 73 74 99 124 131 133 134 134 135 135 131 123 119 120 126 122 114 106 100 94 89 87 88 93 98 102 105 108 111 114 115 115 116 120 125 129 130 127 118 111 106 105 107 113 111 105
25 23 20 18 15 14 13 13 13 12 12 12 13 15 19 25 28 29 30 31 33 35 37 39 40 41 41 43 44 44 44 40 37 34 31 31 36 47 66 75 74 71 74 102 121 131 137 139 140 141 137 130 126 124 125 122 118 116 113 105 96 91 95 101 105 109 112 115 118 120 120 122 125 129 135 141 143 139 130 123 120 121 129 146 154 157
25 23 21 19 17 16 15 13 11 10 10 12 14 16 18 23 27 29 30 31 34 36 38 40 42 43 42 42 42 41 40 39 37 36 34 34 36 42 54 64 72 77 77 83 97 113 125 130 132 132 132 132 133 134 131 126 125 125 124 117 110 104 105 108 112 117 120 122 124 124 122 121 121 122 122 120 114 107 102 104 104 103 92 80 134 164
23 22 19 17 17 17 17 15 13 12 13 15 17 19 19 20 23 26 27 29 30 31 32 35 38 42 43 43 42 41 40 39 39 38 37 35 35 38 44 50 60 72 81 81 81 86 97 110 116 120 122 126 127 127 126 128 131 133 131 125 121 119 118 115 115 116 116 113 112 113 116 115 113 110 106 100 91 77 67 69 73 72 59 35 13 359
21 19 16 13 13 14 16 16 16 17 18 21 23 24 22 21 22 25 27 28 28 28 27 29 33 38 42 43 43 41 40 39 38 38 38 37 37 38 40 42 48 63 79 82 80 78 80 91 101 110 118 122 124 124 123 125 127 126 122 118 117 116 111 110 108 105 101 97 97 100 107 107 106 105 103 102 98 91 81 75 72 69 52 27 9 357
16 15 12 10 10 12 14 17 19 20 21 23 25 26 23 22 23 27 31 33 32 30 28 28 32 38 44 44 43 42 40 39 39 39 40 39 38 39 40 41 44 53 69 80 81 79 77 79 83 92 103 112 117 120 122 121 119 115 113 122 127 128 124 123 118 106 95 91 86 84 84 85 88 94 100 107 112 115 120 124 126 129 145 202 321 314
12 11 10 9 9 11 14 18 20 21 22 24 25 25 22 21 24 28 34 35 35 33 30 28 31 39 46 48 46 44 41 39 39 39 40 39 39 39 41 42 43 48 57 70 81 85 83 78 78 81 89 97 103 107 111 113 114 115 120 127 128 127 125 128 126 118 103 93 83 74 68 71 79 93 117 132 137 139 141 148 153 158 167 182 213 246
10 10 10 10 11 13 15 17 18 20 22 24 24 23 20 20 23 28 33 36 36 35 32 28 31 38 43 44 44 44 42 39 38 38 38 38 38 40 42 43 45 48 52 59 67 76 83 83 83 83 85 89 94 98 102 106 107 108 108 105 101 98 102 111 116 117 111 102 91 82 74 76 87 127 156 156 150 146 145 150 157 162 164 176 195 223
11 11 12 12 13 15 16 15 16 19 22 24 24 22 19 19 22 27 31 35 36 36 34 33 36 40 42 41 41 41 41 39 38 37 36 35 36 37 40 44 48 51 56 58 61 65 71 78 84 89 90 90 89 90 94 100 103 103 101 97 96 96 99 103 106 108 107 103 98 92 90 98 127 160 154 139 133 132 140 153 164 172 170 176 190 213
13 12 12 13 14 14 14 14 15 19 23 24 23 21 19 19 22 26 29 32 35 37 37 37 40 42 43 41 40 41 42 41 40 38 37 37 38 39 42 45 50 54 60 62 63 63 63 65 69 78 88 92 92 91 91 95 99 103 106 106 105 104 102 100 96 94 94 94 93 93 94 98 102 99 90 85 92 126 162 173 175 177 178 187 198 216
14 13 13 13 14 15 15 14 15 18 21 22 22 20 19 20 23 27 30 31 34 37 38 40 43 44 44 42 41 42 45 45 44 42 40 41 41 42 45 49 53 57 62 65 66 65 62 59 58 60 70 82 89 94 94 94 97 103 110 112 111 108 104 101 96 91 89 87 83 75 62 56 53 53 51 40 7 266 231 203 190 183 183 185 194 210
16 15 14 15 16 18 18 16 16 18 21 22 22 21 20 21 24 28 31 33 35 37 39 42 44 46 46 43 42 42 44 46 46 44 42 42 44 47 51 54 59 63 66 67 68 66 64 59 54 51 52 60 73 85 91 91 93 98 104 107 108 108 108 106 103 97 93 89 82 71 51 44 42 39 29 357 306 281 268 253 229 205 186 176 176 188
18 17 15 16 18 19 19 18 18 18 20 22 22 22 21 22 24 26 30 34 37 39 41 43 46 48 49 46 43 42 42 44 44 43 40 38 40 47 56 63 68 70 72 72 72 70 68 62 55 49 44 44 47 58 81 85 85 84 81 84 91 98 105 105 102 95 91 92 89 82 66 57 50 44 14 311 290 283 278 264 247 221 183 160 159 174
18 18 17 17 18 19 20 20 20 20 20 22 23 24 23 24 25 27 29 33 37 40 41 43 46 49 50 48 45 42 42 43 43 41 36 31 31 37 49 64 76 82 84 82 81 78 76 72 63 52 43 37 34 34 48 63 79 83 75 70 71 79 90 93 92 88 86 86 87 87 87 90 104 115 111 296 289 283 277 269 261 242 145 122 134 174